Location: Unspecified
(32.5099°N, 80.0190°W)
Time: 03:57:10
(UTC-04:00)

CZ-3 Stage 3 - Visible Passes

Search period start: 20 September 2014 00:00
Search period end: 30 September 2014 00:00
Orbit: 410 x 34836 km, 30.7° (Epoch: 16 September)

Date Brightness Start Highest point End Pass type
(mag) Time Alt. Az. Time Alt. Az. Time Alt. Az.
20 Sep 9.2 00:15:11 10° ESE 01:08:12 13° ESE 01:42:19 10° E visible
21 Sep 6.2 00:48:10 10° SSW 09:21:45 79° S 09:30:24 10° E visible
21 Sep 8.1 22:31:08 10° SE 05:18:00 54° SSE 05:53:35 10° E visible
22 Sep 9.1 23:51:42 10° ESE 01:05:41 15° ESE 01:47:15 10° E visible
24 Sep 6.1 00:46:05 10° SSW 09:19:15 81° S 09:27:37 10° E visible
24 Sep 8.2 22:16:33 10° SE 05:16:42 56° SSE 05:51:00 10° E visible
25 Sep 9.0 23:30:50 10° ESE 01:02:59 17° ESE 01:49:34 10° E visible
27 Sep 6.0 00:43:45 10° SSW 09:16:34 82° S 09:24:42 10° E visible
27 Sep 8.3 22:02:20 10° SSE 05:15:08 58° SSE 05:48:14 10° E visible
28 Sep 9.0 23:11:24 10° ESE 01:00:06 19° ESE 01:50:23 10° E visible
